Weather History for Rouyn Airport, QC

Change the Weather History Date:

Wednesday, January 18, 2012

  Actual Average (CYVO) Record (CYVO)
Temperature  
Mean Temperature -5 °F -  
Max Temperature 1 °F 8 °F 33 °F (1999)
Min Temperature -11 °F -9 °F -31 °F (2005)
Degree Days  
Heating Degree Days 70    
Moisture  
Dew Point -10 °F    
Average Humidity 72    
Maximum Humidity 85    
Minimum Humidity 60    
Precipitation  
Precipitation 0.00 in - - ()
Sea Level Pressure  
Sea Level Pressure 30.03 in    
Wind  
Wind Speed 10 mph ()    
Max Wind Speed 16 mph    
Max Gust Speed 26 mph    
Visibility 10.0 miles    
Events Snow    
Averages and records for this station are not official NWS values.
T = Trace of Precipitation, MM = Missing Value Source: Averaged Metar Reports

Daily Weather History Graph

Daily Weather History Graph

Search for Another Location

Airport:

Trip Planner

Search our weather history database for the weather conditions in past years. The results will help you decide how hot, cold, wet, or windy it might be!

Date:

Astronomy

Jan. 18, 2012 Rise Set
Actual Time 8:59 AM AST 5:52 PM AST
Civil Twilight 8:24 AM AST 6:27 PM AST
Nautical Twilight 7:45 AM AST 7:06 PM AST
Astronomical Twilight 7:08 AM AST 7:43 PM AST
Moon 4:28 AM AST (1/18) 1:27 PM AST (1/18)
Length of Visible Light 10h 03m
Length of Day
8h 53m
Waning Crescent, 25% of the Moon is Illuminated
Jan 18
Waning Crescent
Jan 23
New
Jan 31
First Quarter
Feb 7
Full
Feb 14
Last Quarter

Hourly Weather History & Observations

Time (AST) Temp. Windchill Dew Point Humidity Pressure Visibility Wind Dir Wind Speed Gust Speed Precip Events Conditions
12:00 AM 1.4 °F -18.2 °F -4.0 °F 78% 29.74 in 1.2 mi North 16.1 mph 25.3 mph N/A Snow Light Snow
1:00 AM 1.4 °F -18.2 °F -5.8 °F 72% 29.78 in 2.0 mi NNW 16.1 mph 25.3 mph N/A Snow Light Snow
2:00 AM -0.4 °F -20.5 °F -7.6 °F 72% 29.81 in 2.5 mi North 16.1 mph 26.5 mph N/A Snow Light Snow
3:00 AM -0.4 °F -19.9 °F -7.6 °F 72% 29.83 in 3.0 mi North 15.0 mph 23.0 mph N/A Snow Light Snow
4:00 AM -2.2 °F -22.2 °F -9.4 °F 71% 29.88 in 5.0 mi NNW 15.0 mph 23.0 mph N/A Snow Light Snow
5:00 AM -4.0 °F -22.1 °F -11.2 °F 71% 29.93 in 10.0 mi NNW 11.5 mph 18.4 mph N/A Snow Light Snow
6:00 AM -4.0 °F -20.2 °F -11.2 °F 71% 29.97 in 12.0 mi NW 9.2 mph 18.4 mph N/A Snow Light Snow
7:00 AM -5.8 °F -24.4 °F -13.0 °F 71% 30.01 in 12.0 mi NNW 11.5 mph - N/A Snow Light Snow
7:42 AM - - - N/A% - 15.0 mi NW 11.5 mph 17.3 mph N/A   Partly Cloudy
8:00 AM -7.6 °F -24.6 °F -14.8 °F 71% 30.05 in 15.0 mi NW 9.2 mph - N/A   Partly Cloudy
9:00 AM -11.2 °F -26.4 °F -16.6 °F 77% 30.09 in 15.0 mi WNW 6.9 mph - N/A   Partly Cloudy
10:00 AM -9.4 °F -22.7 °F -16.6 °F 71% 30.13 in 15.0 mi West 5.8 mph - N/A   Partly Cloudy
11:00 AM -9.4 °F -22.7 °F -16.6 °F 71% 30.13 in 15.0 mi WNW 5.8 mph - N/A   Partly Cloudy
12:00 PM -5.8 °F -19.9 °F -16.6 °F 60% 30.14 in 15.0 mi WSW 6.9 mph - N/A   Scattered Clouds
1:00 PM -4.0 °F -19.0 °F -14.8 °F 60% 30.14 in 15.0 mi WNW 8.1 mph - N/A   Overcast
1:03 PM - - - N/A% - 12.0 mi West 8.1 mph - N/A   Unknown
2:00 PM -4.0 °F -17.8 °F -13.0 °F 65% 30.13 in 3.0 mi WSW 6.9 mph - N/A Snow Light Snow
3:00 PM -2.2 °F -18.9 °F -11.2 °F 66% 30.11 in 15.0 mi WSW 10.4 mph - N/A   Partly Cloudy
4:00 PM -2.2 °F -16.8 °F -11.2 °F 66% 30.11 in 15.0 mi WSW 8.1 mph - N/A   Mostly Cloudy
4:25 PM - - - N/A% - 6.0 mi WSW 6.9 mph - N/A   Unknown
5:00 PM -0.4 °F -14.7 °F -9.4 °F 66% 30.11 in 6.0 mi West 8.1 mph - N/A Snow Light Snow
6:00 PM -0.4 °F -13.4 °F -7.6 °F 72% 30.12 in 6.0 mi WSW 6.9 mph - N/A Snow Light Snow
7:00 PM -2.2 °F -14.2 °F -7.6 °F 78% 30.11 in 10.0 mi WSW 5.8 mph - N/A Snow Light Snow
8:00 PM -4.0 °F -14.6 °F -7.6 °F 85% 30.11 in 15.0 mi SSW 4.6 mph - N/A Snow Light Snow
9:00 PM -2.2 °F -10.4 °F -7.6 °F 78% 30.10 in 15.0 mi SE 3.5 mph - N/A Snow Light Snow
10:00 PM -0.4 °F -13.4 °F -5.8 °F 78% 30.07 in 3.0 mi SSE 6.9 mph - N/A Snow Light Snow
11:00 PM -0.4 °F -13.4 °F -4.0 °F 85% 30.03 in 10.0 mi SE 6.9 mph - N/A Snow Light Snow